Regional Weather Roundup
Issued by NWS

Home | Current Version | Previous Version | Graphics & Text | Print | Product List | Glossary On
Versions: 1 2 3 4 5 6 7 8 9 10 11 12 13 14 15 16 17 18 19 20 21 22 23 24 25 26 27 28 29 30 31 32 33 34 35 36 37 38 39 40 41 42 43 44 45 46 47 48 49 50
430
ASUS45 KBOU 211307
RWRCO

WEATHER ROUNDUP FOR COLORADO
NATIONAL WEATHER SERVICE DENVER/BOULDER CO
600 AM MST SAT JAN 21 2017

NOTE: "FAIR" INDICATES FEW OR NO CLOUDS BELOW 12000 FEET WITH NO
SIGNIFICANT WEATHER AND/OR OBSTRUCTIONS TO VISIBILITY.

COZ001>005-013-030-031-211400-
...NORTHWEST COLORADO...

CITY           SKY/WX    TMP DP  RH WIND       PRES   REMARKS
CRAIG          MOCLDY    14  10  84 CALM      29.34F
HAYDEN         CLOUDY    19  12  73 E12       29.33F WCI   7
MEEKER         CLOUDY    19  14  81 CALM      29.31S
MOUNT WERNER   NOT AVBL
STEAMBOAT SPGS CLOUDY    11  10  92 CALM      29.35S
WALDEN           N/A      7   1  78 SE7       29.36S WCI  -5
$$

COZ006>008-011-211400-
...WEST CENTRAL VALLEYS...

CITY           SKY/WX    TMP DP  RH WIND       PRES   REMARKS
GRAND JUNCTION CLOUDY    34  29  82 SE8       29.32S WCI  27
MONTROSE       CLOUDY    31  20  63 NE13      29.34F WCI  21
EAGLE          CLOUDY    12   9  87 CALM      29.41F
RIFLE          CLOUDY    27  23  85 CALM      29.33F
DELTA          LGT SNOW  34  31  90 NE9       29.34F WCI  26
NUCLA          LGT SNOW  32  30  93 CALM      29.33F
$$

COZ017>023-064>068-211400-
...SOUTHWEST COLORADO...

CITY           SKY/WX    TMP DP  RH WIND       PRES   REMARKS
DURANGO        LGT SNOW  28  26  92 E5        29.35S VSB 1   WCI  23
CORTEZ         LGT SNOW  32  31  96 N5        29.32F FOG     WCI  27
PAGOSA SPRINGS LGT SNOW  26  26  99 CALM      29.37S VSB 1
TELLURIDE      NOT AVBL
WOLF CREEK PAS CLOUDY    14  14 100 S15G32    29.39S WCI  -1
$$

COZ009-010-012-014-032>034-037-058>063-211400-
...CENTRAL COLORADO...

CITY           SKY/WX    TMP DP  RH WIND       PRES   REMARKS
ASPEN          FAIR      11   8  88 N5        29.30F WCI   3
BUENA VISTA    MOCLDY     7   2  82 W7        29.41S WCI  -5
COPPER MTN     FAIR      18   7  62 MISG      29.33F
BERTHOUD PASS  NOT AVBL
COTTONWOOD PAS FAIR      18  12  79 CALM      29.36F
GUNNISON       FAIR      11   6  81 NE8       29.39F WCI  -1
KREMMLING      SNOW     N/A N/A N/A CALM      29.43S VSB 1/2
LEADVILLE      FAIR      -2  -5  87 CALM      29.34F
MONARCH PASS     N/A     12   9  85 SW13G24   29.43F WCI  -3
SALIDA         FAIR      24  19  79 SW12G18   29.45F WCI  13
SUNLIGHT       FOG       14  12  92 MISG      29.35F VSB 1/2
WILKERSON PASS FAIR      10   9  92 SW13G20   29.37S WCI  -5
$$

COZ069>075-211400-
...SAN LUIS VALLEY/SANGRE DE CRISTO MOUNTAINS...

CITY           SKY/WX    TMP DP  RH WIND       PRES   REMARKS
ALAMOSA        CLOUDY    18  15  88 NW6       29.39F WCI  10
LA VETA PASS   LGT SNOW  21  19  93 N7G20     29.37R WCI  13
SAGUACHE       LGT SNOW  18  14  86 N8        29.41F WCI   7
$$

COZ035-036-038>040-211400-
...NORTHERN COLORADO FRONT RANGE...

CITY           SKY/WX    TMP DP  RH WIND       PRES   REMARKS
DENVER INTL AP FAIR      21  17  84 SW7       29.36R WCI  12
DMNS CITY PARK   N/A     24  23  96 N2        29.37R
AURORA         PTCLDY    23  15  74 S6        29.36S WCI  15
FRONT RANGE AP NOT AVBL
ERIE MUNI ARPT FAIR      22  20  94 CALM      29.37S
BOULDER MUN AP FAIR      27  23  86 CALM      29.36S
CENTENNIAL     FAIR      24  13  62 S7        29.36S WCI  16
BROOMFIELD     PTCLDY    28  25  86 CALM      29.36S
FORT COLLINS   FAIR      21  18  86 N5        29.37S WCI  15
LONGMONT       FAIR      22  19  86 CALM      29.39S
$$

COZ041-046-047-076>085-087-088-211400-
...PIKES PEAK/PALMER DIVIDE AND SOUTHERN FOOTHILLS...

CITY           SKY/WX    TMP DP  RH WIND       PRES   REMARKS
COLO. SPRINGS  MOCLDY    22  18  85 NE7       29.37F WCI  13
A. F. ACADEMY  FAIR      18  15  86 CALM      29.36S
SCHRIEVER AFB  NOT AVBL
ELLICOTT       FAIR     N/A N/A N/A SE5       29.36S
FALCON         MOCLDY    20  19  94 N6        29.37F WCI  12
FORT CARSON    CLOUDY    26  25  95 NW5       29.36F FOG     WCI  21
LIMON          FOG       24  23  96 N3        29.39F VSB 1/4
MONUMENT HILL  NOT AVBL
TRINIDAD       FAIR      19  12  74 W9        29.37F WCI   8
$$

COZ042>045-048>051-090-091-211400-
...NORTHEAST COLORADO...

CITY           SKY/WX    TMP DP  RH WIND       PRES   REMARKS
GREELEY ARPT   NOT AVBL
AKRON          FAIR      26  20  77 S9        29.39R WCI  17
BURLINGTON     FAIR      28  25  88 S9        29.41F WCI  19
WRAY           FAIR      21  19  93 W7        29.43R WCI  13
STERLING       FAIR      19  18  93 SW5       29.40S WCI  13
HOLYOKE        FAIR      25  21  86 SW9       29.41R WCI  15
FORT MORGAN    FAIR      23  21  93 CALM      29.39S
$$

COZ086-089-092>099-211400-
...SOUTHEAST COLORADO...

CITY           SKY/WX    TMP DP  RH WIND       PRES   REMARKS
PUEBLO         FOG       29  27  92 N5        29.39S VSB 1/4 WCI  24
LA JUNTA       FOG       24  22  91 W5        29.41R VSB 1/4 WCI  18
LAMAR          FAIR      19  16  88 S6        29.40S FOG     WCI  11
SPRINGFIELD      N/A     23  20  88 SW6       29.38S WCI  16
$$




USA.gov is the U.S. government's official web portal to all federal, state and local government web resources and services.